Simultaneous Nadir Overpasses (SNOs) Predictions

Prediction of SNOs between GOES-16 and METOP-C Satellite Orbit:

Table of predicted SNOs for the next 14.0 days since TLE Epoch: 8/22/2022
Index Date Time (GOES-16) GOES-16 Lat,Lon METOP-C Lat,Lon Distance(km) Time Diff (sec)
1 08/23/2022 02:22:36 0.02, -75.19 0.53, -72.78 274.03 80
2 08/24/2022 14:38:48 -0.03, -75.21 0.42, -77.36 244.44 80
3 08/25/2022 14:18:08 -0.03, -75.21 -0.66, -72.36 325.08 80
4 08/27/2022 02:39:47 0.02, -75.20 -0.35, -76.95 199.15 80
5 08/28/2022 02:16:26 0.02, -75.21 0.73, -71.95 370.84 80
6 08/29/2022 14:37:58 -0.02, -75.24 0.26, -76.52 145.97 80
7 08/30/2022 14:14:37 -0.02, -75.25 -0.83, -71.52 424.32 80
8 09/01/2022 02:36:17 0.02, -75.25 -0.19, -76.12 99.13 80
9 09/02/2022 02:12:57 0.02, -75.26 0.95, -71.13 471.30 80
10 09/03/2022 14:34:27 -0.02, -75.29 0.08, -75.68 44.97 80
